Hamilton, OH

11:27 AM EDT on March 26, 2017 (GMT -0400)
Butler County Regional

Weather History for KHAO - July, 2013

Change the Weather History Date:

Friday, July 12, 2013

  Actual Average (KLUK) Record (KLUK)
Temperature  
Mean Temperature 69 °F -  
Max Temperature 81 °F 86 °F 95 °F (1983)
Min Temperature 57 °F 66 °F 54 °F (1963)
Cooling Degree Days 4    
Growing Degree Days 19 (Base 50)    
Moisture  
Dew Point 58 °F    
Average Humidity 68    
Maximum Humidity 93    
Minimum Humidity 45    
Precipitation  
Precipitation 0.00 in - - ()
Sea Level Pressure  
Sea Level Pressure 30.08 in    
Wind  
Wind Speed 3 mph (NNE)    
Max Wind Speed 12 mph    
Max Gust Speed 16 mph    
Visibility 10 miles    
Events      
Averages and records for this station are not official NWS values.
T = Trace of Precipitation, MM = Missing Value Source: NWS Daily Summary

Daily Weather History Graph

Daily Weather History Graph

Search for Another Location

Airport or City:

Trip Planner

Search our weather history database for the weather conditions in past years. The results will help you decide how hot, cold, wet, or windy it might be!

Date:

Astronomy

Jul. 12, 2013 Rise Set
Actual Time 6:21 AM EDT 9:05 PM EDT
Civil Twilight 5:50 AM EDT 9:36 PM EDT
Nautical Twilight 5:10 AM EDT 10:16 PM EDT
Astronomical Twilight 4:25 AM EDT 11:01 PM EDT
Moon 10:36 AM EDT (7/12) 11:17 PM EDT (7/12)
Length of Visible Light 15h 46m
Length of Day
14h 43m
Waxing Crescent, 17% of the Moon is Illuminated
Jul 12
Waxing Crescent
Jul 15
First Quarter
Jul 22
Full
Jul 29
Last Quarter
Aug 6
New

Hourly Weather History & Observations

Time (EDT) Temp. Heat Index Dew Point Humidity Pressure Visibility Wind Dir Wind Speed Gust Speed Precip Events Conditions
12:53 AM 60.1 °F - 57.9 °F 93% 30.05 in 8.0 mi Calm Calm - N/A   Clear
1:53 AM 59.0 °F - 57.0 °F 93% 30.05 in 8.0 mi Calm Calm - N/A   Clear
2:53 AM 59.0 °F - 57.0 °F 93% 30.05 in 7.0 mi Calm Calm - N/A   Clear
3:53 AM 59.0 °F - 55.9 °F 90% 30.06 in 8.0 mi Calm Calm - N/A   Clear
4:53 AM 57.9 °F - 55.9 °F 93% 30.06 in 7.0 mi Calm Calm - N/A   Clear
5:53 AM 59.0 °F - 55.9 °F 90% 30.08 in 10.0 mi Calm Calm - N/A   Clear
6:53 AM 59.0 °F - 57.0 °F 93% 30.09 in 10.0 mi Calm Calm - N/A   Clear
7:53 AM 64.9 °F - 59.0 °F 81% 30.10 in 10.0 mi NE 3.5 mph - N/A   Clear
8:53 AM 68.0 °F - 59.0 °F 73% 30.11 in 10.0 mi NE 8.1 mph - N/A   Clear
9:53 AM 72.0 °F - 57.9 °F 61% 30.11 in 10.0 mi NNE 10.4 mph - N/A   Clear
10:53 AM 73.9 °F - 57.9 °F 57% 30.12 in 10.0 mi North 10.4 mph - N/A   Clear
11:53 AM 75.9 °F - 57.0 °F 52% 30.12 in 10.0 mi NNE 11.5 mph - N/A   Clear
12:53 PM 78.1 °F - 55.9 °F 46% 30.10 in 10.0 mi NE 10.4 mph - N/A   Clear
1:53 PM 78.1 °F - 55.9 °F 46% 30.08 in 10.0 mi NNE 9.2 mph - N/A   Partly Cloudy
2:53 PM 78.1 °F - 55.9 °F 46% 30.09 in 10.0 mi NNE 4.6 mph - N/A   Mostly Cloudy
3:53 PM 81.0 °F 81.1 °F 57.9 °F 45% 30.08 in 10.0 mi NNE 9.2 mph - N/A   Scattered Clouds
4:53 PM 80.1 °F 80.7 °F 59.0 °F 48% 30.06 in 10.0 mi NE 6.9 mph - N/A   Scattered Clouds
5:53 PM 80.1 °F 80.7 °F 59.0 °F 48% 30.06 in 10.0 mi NE 8.1 mph 16.1 mph N/A   Partly Cloudy
6:53 PM 80.1 °F 80.7 °F 59.0 °F 48% 30.05 in 10.0 mi North 6.9 mph - N/A   Partly Cloudy
7:53 PM 78.1 °F - 60.1 °F 54% 30.05 in 10.0 mi NNE 4.6 mph - N/A   Clear
8:53 PM 77.0 °F - 59.0 °F 54% 30.05 in 10.0 mi NNE 5.8 mph - N/A   Overcast
9:53 PM 71.1 °F - 61.0 °F 70% 30.05 in 10.0 mi North 3.5 mph - 0.00 in   Mostly Cloudy
10:53 PM 71.1 °F - 61.0 °F 70% 30.08 in 10.0 mi NE 4.6 mph - N/A   Clear
11:53 PM 68.0 °F - 61.0 °F 78% 30.08 in 10.0 mi East 4.6 mph - N/A   Partly Cloudy